Location: Malvern Link
(52.1333°N, 2.3000°W)
Time: 16:19:16
(UTC+00:00)

Cosmos 1634 Rocket - Pass Details

Date: 01 December 2021
Orbit: 959 x 993 km, 82.9° (Epoch: 23 January)

Event Time Altitude Azimuth Distance (km) Brightness Sun altitude
Rises 19:50:44 0° 230° (SW) 3,699 7.5 -34.2°
Reaches altitude 10° 19:53:43 10° 242° (WSW) 2,757 6.9 -34.7°
Maximum altitude 19:58:54 26° 298° (WNW) 1,851 5.9 -35.5°
Drops below altitude 10° 20:04:08 10° 353° (N) 2,769 6.5 -36.3°
Sets 20:07:09 0° 6° (N) 3,719 7.1 -36.7°
